Погода в Тараканове

Украина / Ровненская область     50°22′47″N   25°42′19″E
темп.,
°C
ветер,
м/с
пор.,
м/с
влажн.,
%
обл.,
%
осадки,
мм/ч
давл.,
гПа
погр.,
м
19 июня, сб
сб1900:00+18вюв36920 0.0 1020118
03:00+17в36950 0.0 1020105
06:00+17в34960 0.0 102092
09:00+21в468442 0.0 1020584
12:00+24в676621 0.3 10191368
15:00+24вюв687191 1.4 10181287
18:00+24юв36676 0.4 10181328
21:00+19вюв33851 0.8 101840
20 июня, вс
вс2000:00+17вюв229131 0.0 101814
03:00+16всв2291100 0.1 101711
06:00+17всв229686 1.6 101749
09:00+20в4691100 2.6 1016486
12:00+23юв6779100 0.9 1016964
15:00+25в467098 1.5 10151169
18:00+24в59735 1.9 10131152
21:00+20вюв4108324 1.9 1014289
21 июня, пн
пн2100:00+17вюв369221 0.0 1013139
03:00+18в369149 0.0 1013157
06:00+16вюв37965 0.0 1013164
09:00+21вюв468216 0.0 1012473
12:00+23юв567422 0.0 1012746
15:00+26юв456149 0.2 10111608
18:00+25юв467797 1.9 1011608
21:00+21вюв379049 2.8 1011159
22 июня, вт
вт2200:00+19юв38935 0.0 1011135
03:00+17юв35933 0.0 101186
06:00+17вюв48930 0.0 1011145
09:00+22юв47804 0.0 1012414
12:00+26юв56640 0.0 10121198
15:00+27юв565815 0.0 10121782
18:00+27юв46671 0.3 10121108
21:00+23юв22801 0.6 101211
23 июня, ср
ср2300:00+20юв339036 0.1 101330
03:00+19юв229219 0.1 101324
06:00+19вюв22930 0.0 101337
09:00+23юв23800 0.0 1014358
12:00+27юв336717 0.0 10141200
15:00+29юв235652 0.1 10131777
18:00+28в126677 0.5 1014564
21:00+24вюв348178 1.3 101452